Time,TemperatureF,DewpointF,PressureIn,WindDirection,WindDirectionDegrees,WindSpeedMPH,WindSpeedGustMPH,Humidity,HourlyPrecipIn,Conditions,Clouds,dailyrainin,SoftwareType,DateUTC
2013-01-15 00:00:00,20.0,9.8,30.41,NE,46,0.0,0.0,64,0.00,,---,0.00,VWS V14.01,2013-01-15 06:00:00,
2013-01-15 00:05:00,19.9,10.1,30.41,NE,51,0.0,0.0,65,0.00,,---,0.00,VWS V14.01,2013-01-15 06:05:00,
2013-01-15 00:10:00,19.7,10.2,30.41,ENE,64,0.0,0.0,66,0.00,,---,0.00,VWS V14.01,2013-01-15 06:10:00,
2013-01-15 00:15:00,19.5,10.0,30.41,ENE,65,0.0,0.0,66,0.00,,---,0.00,VWS V14.01,2013-01-15 06:15:00,
2013-01-15 00:20:00,19.5,10.3,30.40,NE,50,0.0,0.0,67,0.00,,---,0.00,VWS V14.01,2013-01-15 06:20:00,
2013-01-15 00:25:00,19.5,10.3,30.40,ENE,61,0.0,0.0,67,0.00,,---,0.00,VWS V14.01,2013-01-15 06:25:00,
2013-01-15 00:30:00,19.7,10.5,30.40,NE,40,0.0,0.0,67,0.00,,---,0.00,VWS V14.01,2013-01-15 06:30:00,
2013-01-15 00:35:00,19.7,10.9,30.40,NE,55,0.0,0.0,68,0.00,,---,0.00,VWS V14.01,2013-01-15 06:35:00,
2013-01-15 00:40:00,19.9,10.7,30.40,ENE,73,0.0,0.0,67,0.00,,---,0.00,VWS V14.01,2013-01-15 06:40:00,
2013-01-15 00:45:00,19.9,10.7,30.40,ENE,63,0.0,0.0,67,0.00,,---,0.00,VWS V14.01,2013-01-15 06:45:00,
2013-01-15 00:50:00,19.9,10.7,30.40,NNE,33,0.0,1.0,67,0.00,,---,0.00,VWS V14.01,2013-01-15 06:50:00,
2013-01-15 00:55:00,19.9,10.7,30.40,ENE,67,0.0,1.0,67,0.00,,---,0.00,VWS V14.01,2013-01-15 06:55:00,
2013-01-15 01:00:00,19.9,10.7,30.40,ENE,61,0.0,1.0,67,0.00,,---,0.00,VWS V14.01,2013-01-15 07:00:00,
2013-01-15 01:05:00,19.9,10.7,30.39,NE,55,0.0,0.0,67,0.00,,---,0.00,VWS V14.01,2013-01-15 07:05:00,
2013-01-15 01:10:00,19.7,10.5,30.39,NE,54,0.0,1.0,67,0.00,,---,0.00,VWS V14.01,2013-01-15 07:10:00,
2013-01-15 01:15:00,19.5,10.3,30.39,NE,53,0.0,1.0,67,0.00,,---,0.00,VWS V14.01,2013-01-15 07:15:00,
2013-01-15 01:20:00,19.5,10.3,30.39,NE,55,0.0,1.0,67,0.00,,---,0.00,VWS V14.01,2013-01-15 07:20:00,
2013-01-15 01:25:00,19.4,10.6,30.39,ENE,61,0.0,1.0,68,0.00,,---,0.00,VWS V14.01,2013-01-15 07:25:00,
2013-01-15 01:30:00,19.4,10.6,30.39,NE,55,0.0,1.0,68,0.00,,---,0.00,VWS V14.01,2013-01-15 07:30:00,
2013-01-15 01:35:00,19.2,10.4,30.38,ENE,69,0.0,0.0,68,0.00,,---,0.00,VWS V14.01,2013-01-15 07:35:00,
2013-01-15 01:40:00,19.2,10.4,30.38,ENE,71,0.0,2.0,68,0.00,,---,0.00,VWS V14.01,2013-01-15 07:40:00,
2013-01-15 01:45:00,19.1,10.3,30.38,ENE,58,0.0,2.0,68,0.00,,---,0.00,VWS V14.01,2013-01-15 07:45:00,
2013-01-15 01:50:00,19.2,10.7,30.40,ENE,71,0.0,2.0,69,0.00,,---,0.00,VWS V14.01,2013-01-15 07:50:00,
2013-01-15 01:55:00,19.2,10.7,30.40,NE,55,0.0,2.0,69,0.00,,---,0.00,VWS V14.01,2013-01-15 07:55:00,
2013-01-15 02:00:00,19.2,10.7,30.40,ENE,69,0.0,2.0,69,0.00,,---,0.00,VWS V14.01,2013-01-15 08:00:00,
2013-01-15 02:05:00,19.4,10.9,30.38,East,96,0.0,0.0,69,0.00,,---,0.00,VWS V14.01,2013-01-15 08:05:00,
2013-01-15 02:10:00,19.5,11.0,30.38,ESE,104,0.0,0.0,69,0.00,,---,0.00,VWS V14.01,2013-01-15 08:10:00,
2013-01-15 02:15:00,19.9,11.4,30.38,East,79,0.0,1.0,69,0.00,,---,0.00,VWS V14.01,2013-01-15 08:15:00,
2013-01-15 02:20:00,19.9,11.1,30.38,ENE,78,0.0,1.0,68,0.00,,---,0.00,VWS V14.01,2013-01-15 08:20:00,
2013-01-15 02:25:00,19.7,10.9,30.38,North,9,0.0,1.0,68,0.00,,---,0.00,VWS V14.01,2013-01-15 08:25:00,
2013-01-15 02:30:00,19.7,10.9,30.38,ESE,102,0.0,1.0,68,0.00,,---,0.00,VWS V14.01,2013-01-15 08:30:00,
2013-01-15 02:35:00,19.7,10.5,30.37,NE,42,0.0,0.0,67,0.00,,---,0.00,VWS V14.01,2013-01-15 08:35:00,
2013-01-15 02:40:00,19.7,10.9,30.37,NE,39,0.0,0.0,68,0.00,,---,0.00,VWS V14.01,2013-01-15 08:40:00,
2013-01-15 02:45:00,19.7,10.5,30.37,NNE,21,0.0,1.0,67,0.00,,---,0.00,VWS V14.01,2013-01-15 08:45:00,
2013-01-15 02:50:00,19.9,10.7,30.36,NE,53,0.0,1.0,67,0.00,,---,0.00,VWS V14.01,2013-01-15 08:50:00,
2013-01-15 02:55:00,19.7,10.5,30.36,ENE,61,0.0,1.0,67,0.00,,---,0.00,VWS V14.01,2013-01-15 08:55:00,
2013-01-15 03:00:00,19.5,10.3,30.36,NE,51,0.0,1.0,67,0.00,,---,0.00,VWS V14.01,2013-01-15 09:00:00,
2013-01-15 03:05:00,19.4,10.2,30.36,NNE,13,1.0,1.0,67,0.00,,---,0.00,VWS V14.01,2013-01-15 09:05:00,
2013-01-15 03:10:00,19.2,10.4,30.36,ENE,76,0.0,1.0,68,0.00,,---,0.00,VWS V14.01,2013-01-15 09:10:00,
2013-01-15 03:15:00,19.2,10.4,30.36,ENE,74,0.0,1.0,68,0.00,,---,0.00,VWS V14.01,2013-01-15 09:15:00,
2013-01-15 03:20:00,19.1,10.3,30.36,NE,55,0.0,1.0,68,0.00,,---,0.00,VWS V14.01,2013-01-15 09:20:00,
2013-01-15 03:25:00,19.1,10.3,30.36,ENE,67,0.0,1.0,68,0.00,,---,0.00,VWS V14.01,2013-01-15 09:25:00,
2013-01-15 03:30:00,19.1,10.3,30.36,ENE,63,0.0,1.0,68,0.00,,---,0.00,VWS V14.01,2013-01-15 09:30:00,
2013-01-15 03:35:00,18.9,10.4,30.35,ENE,63,0.0,0.0,69,0.00,,---,0.00,VWS V14.01,2013-01-15 09:35:00,
2013-01-15 03:40:00,18.9,10.4,30.35,ENE,62,0.0,0.0,69,0.00,,---,0.00,VWS V14.01,2013-01-15 09:40:00,
2013-01-15 03:45:00,18.9,10.4,30.35,ENE,60,0.0,0.0,69,0.00,,---,0.00,VWS V14.01,2013-01-15 09:45:00,
2013-01-15 03:50:00,18.8,10.3,30.35,ENE,71,0.0,0.0,69,0.00,,---,0.00,VWS V14.01,2013-01-15 09:50:00,
2013-01-15 03:55:00,18.8,10.3,30.35,ENE,57,0.0,0.0,69,0.00,,---,0.00,VWS V14.01,2013-01-15 09:55:00,
2013-01-15 04:00:00,18.6,10.5,30.35,NE,46,0.0,0.0,70,0.00,,---,0.00,VWS V14.01,2013-01-15 10:00:00,
2013-01-15 04:05:00,18.8,10.6,30.35,NE,35,0.0,0.0,70,0.00,,---,0.00,VWS V14.01,2013-01-15 10:05:00,
2013-01-15 04:10:00,19.2,11.4,30.35,NNE,24,0.0,3.0,71,0.00,,---,0.00,VWS V14.01,2013-01-15 10:10:00,
2013-01-15 04:15:00,19.7,11.2,30.35,NE,38,0.0,3.0,69,0.00,,---,0.00,VWS V14.01,2013-01-15 10:15:00,
2013-01-15 04:20:00,20.0,11.1,30.35,NE,36,0.0,3.0,68,0.00,,---,0.00,VWS V14.01,2013-01-15 10:20:00,
2013-01-15 04:25:00,20.0,10.8,30.35,NE,56,0.0,3.0,67,0.00,,---,0.00,VWS V14.01,2013-01-15 10:25:00,
2013-01-15 04:30:00,20.0,10.5,30.35,ENE,63,0.0,3.0,66,0.00,,---,0.00,VWS V14.01,2013-01-15 10:30:00,
2013-01-15 04:35:00,19.9,10.4,30.35,ENE,57,0.0,0.0,66,0.00,,---,0.00,VWS V14.01,2013-01-15 10:35:00,
2013-01-15 04:40:00,19.9,10.4,30.35,ENE,57,0.0,0.0,66,0.00,,---,0.00,VWS V14.01,2013-01-15 10:40:00,
2013-01-15 04:45:00,19.7,10.5,30.35,ENE,60,0.0,0.0,67,0.00,,---,0.00,VWS V14.01,2013-01-15 10:45:00,
2013-01-15 04:50:00,19.5,10.3,30.35,NNE,27,0.0,0.0,67,0.00,,---,0.00,VWS V14.01,2013-01-15 10:50:00,
2013-01-15 04:55:00,19.5,10.7,30.35,NW,314,0.0,0.0,68,0.00,,---,0.00,VWS V14.01,2013-01-15 10:55:00,
2013-01-15 05:00:00,19.5,10.7,30.35,NE,51,0.0,0.0,68,0.00,,---,0.00,VWS V14.01,2013-01-15 11:00:00,
2013-01-15 05:05:00,19.4,10.6,30.35,ENE,71,0.0,0.0,68,0.00,,---,0.00,VWS V14.01,2013-01-15 11:05:00,
2013-01-15 05:10:00,19.2,10.4,30.35,NE,39,0.0,0.0,68,0.00,,---,0.00,VWS V14.01,2013-01-15 11:10:00,
2013-01-15 05:15:00,19.1,10.6,30.35,ENE,68,0.0,0.0,69,0.00,,---,0.00,VWS V14.01,2013-01-15 11:15:00,
2013-01-15 05:20:00,18.9,10.4,30.36,ENE,78,1.0,1.0,69,0.00,,---,0.00,VWS V14.01,2013-01-15 11:20:00,
2013-01-15 05:25:00,18.8,10.3,30.36,NE,43,0.0,1.0,69,0.00,,---,0.00,VWS V14.01,2013-01-15 11:25:00,
2013-01-15 05:30:00,18.4,9.9,30.36,NE,52,0.0,1.0,69,0.00,,---,0.00,VWS V14.01,2013-01-15 11:30:00,
2013-01-15 05:35:00,18.3,10.2,30.36,NE,51,0.0,0.0,70,0.00,,---,0.00,VWS V14.01,2013-01-15 11:35:00,
2013-01-15 05:40:00,18.1,10.0,30.36,ENE,76,0.0,0.0,70,0.00,,---,0.00,VWS V14.01,2013-01-15 11:40:00,
2013-01-15 05:45:00,18.1,10.3,30.36,ENE,71,0.0,0.0,71,0.00,,---,0.00,VWS V14.01,2013-01-15 11:45:00,
2013-01-15 05:50:00,18.3,10.8,30.36,ENE,65,0.0,1.0,72,0.00,,---,0.00,VWS V14.01,2013-01-15 11:50:00,
2013-01-15 05:55:00,18.4,10.6,30.36,ENE,69,0.0,1.0,71,0.00,,---,0.00,VWS V14.01,2013-01-15 11:55:00,
2013-01-15 06:00:00,18.4,10.6,30.36,ENE,68,0.0,1.0,71,0.00,,---,0.00,VWS V14.01,2013-01-15 12:00:00,
2013-01-15 06:05:00,18.4,10.6,30.37,ENE,64,0.0,0.0,71,0.00,,---,0.00,VWS V14.01,2013-01-15 12:05:00,
2013-01-15 06:10:00,18.4,10.6,30.37,East,96,0.0,0.0,71,0.00,,---,0.00,VWS V14.01,2013-01-15 12:10:00,
2013-01-15 06:15:00,18.8,11.3,30.37,East,97,0.0,0.0,72,0.00,,---,0.00,VWS V14.01,2013-01-15 12:15:00,
2013-01-15 06:20:00,19.1,11.3,30.36,East,91,0.0,4.0,71,0.00,,---,0.00,VWS V14.01,2013-01-15 12:20:00,
2013-01-15 06:25:00,19.1,11.3,30.36,ENE,58,0.0,4.0,71,0.00,,---,0.00,VWS V14.01,2013-01-15 12:25:00,
2013-01-15 06:30:00,18.9,10.8,30.36,ENE,67,0.0,4.0,70,0.00,,---,0.00,VWS V14.01,2013-01-15 12:30:00,
2013-01-15 06:35:00,18.8,10.6,30.37,NNE,32,2.0,2.0,70,0.00,,---,0.00,VWS V14.01,2013-01-15 12:35:00,
2013-01-15 06:40:00,18.6,10.5,30.37,NE,51,0.0,7.0,70,0.00,,---,0.00,VWS V14.01,2013-01-15 12:40:00,
2013-01-15 06:45:00,18.6,10.5,30.37,ENE,61,0.0,7.0,70,0.00,,---,0.00,VWS V14.01,2013-01-15 12:45:00,
2013-01-15 06:50:00,18.8,11.0,30.37,East,90,0.0,7.0,71,0.00,,---,0.00,VWS V14.01,2013-01-15 12:50:00,
2013-01-15 06:55:00,19.1,11.3,30.37,NE,54,0.0,7.0,71,0.00,,---,0.00,VWS V14.01,2013-01-15 12:55:00,
2013-01-15 07:00:00,19.1,10.9,30.37,NW,321,0.0,7.0,70,0.00,,---,0.00,VWS V14.01,2013-01-15 13:00:00,
2013-01-15 07:05:00,19.1,10.9,30.37,NNE,31,0.0,0.0,70,0.00,,---,0.00,VWS V14.01,2013-01-15 13:05:00,
2013-01-15 07:10:00,19.1,10.6,30.37,East,82,0.0,0.0,69,0.00,,---,0.00,VWS V14.01,2013-01-15 13:10:00,
2013-01-15 07:15:00,19.1,10.6,30.37,NE,45,0.0,0.0,69,0.00,,---,0.00,VWS V14.01,2013-01-15 13:15:00,
2013-01-15 07:20:00,19.1,10.6,30.38,NE,40,0.0,5.0,69,0.00,,---,0.00,VWS V14.01,2013-01-15 13:20:00,
2013-01-15 07:25:00,19.1,10.3,30.38,East,80,0.0,6.0,68,0.00,,---,0.00,VWS V14.01,2013-01-15 13:25:00,
2013-01-15 07:30:00,19.2,10.4,30.38,East,84,0.0,6.0,68,0.00,,---,0.00,VWS V14.01,2013-01-15 13:30:00,
2013-01-15 07:35:00,19.1,10.0,30.38,NE,39,0.0,0.0,67,0.00,,---,0.00,VWS V14.01,2013-01-15 13:35:00,
2013-01-15 07:40:00,19.1,10.0,30.38,NE,55,0.0,0.0,67,0.00,,---,0.00,VWS V14.01,2013-01-15 13:40:00,
2013-01-15 07:45:00,18.9,9.8,30.38,East,85,0.0,1.0,67,0.00,,---,0.00,VWS V14.01,2013-01-15 13:45:00,
2013-01-15 07:50:00,19.1,10.0,30.38,East,94,0.0,4.0,67,0.00,,---,0.00,VWS V14.01,2013-01-15 13:50:00,
2013-01-15 07:55:00,19.4,10.2,30.38,East,83,2.0,10.0,67,0.00,,---,0.00,VWS V14.01,2013-01-15 13:55:00,
2013-01-15 08:00:00,19.2,9.7,30.38,ENE,70,0.0,10.0,66,0.00,,---,0.00,VWS V14.01,2013-01-15 14:00:00,
2013-01-15 08:05:00,19.2,9.7,30.38,NE,39,0.0,1.0,66,0.00,,---,0.00,VWS V14.01,2013-01-15 14:05:00,
2013-01-15 08:10:00,19.2,9.7,30.38,NE,46,0.0,4.0,66,0.00,,---,0.00,VWS V14.01,2013-01-15 14:10:00,
2013-01-15 08:15:00,19.7,10.2,30.38,NE,49,0.0,4.0,66,0.00,,---,0.00,VWS V14.01,2013-01-15 14:15:00,
2013-01-15 08:20:00,19.7,9.5,30.37,ENE,61,0.0,4.0,64,0.00,,---,0.00,VWS V14.01,2013-01-15 14:20:00,
2013-01-15 08:25:00,19.7,9.5,30.37,ENE,57,0.0,4.0,64,0.00,,---,0.00,VWS V14.01,2013-01-15 14:25:00,
2013-01-15 08:30:00,19.7,9.5,30.37,NE,53,0.0,5.0,64,0.00,,---,0.00,VWS V14.01,2013-01-15 14:30:00,
2013-01-15 08:35:00,19.7,9.5,30.37,NE,55,0.0,0.0,64,0.00,,---,0.00,VWS V14.01,2013-01-15 14:35:00,
2013-01-15 08:40:00,20.0,9.8,30.37,East,95,0.0,4.0,64,0.00,,---,0.00,VWS V14.01,2013-01-15 14:40:00,
2013-01-15 08:45:00,20.5,10.3,30.37,East,80,0.0,4.0,64,0.00,,---,0.00,VWS V14.01,2013-01-15 14:45:00,
2013-01-15 08:50:00,21.1,10.5,30.37,NE,54,0.0,5.0,63,0.00,,---,0.00,VWS V14.01,2013-01-15 14:50:00,
2013-01-15 08:55:00,21.4,10.1,30.37,ENE,77,0.0,5.0,61,0.00,,---,0.00,VWS V14.01,2013-01-15 14:55:00,
2013-01-15 09:00:00,21.8,10.1,30.37,East,94,0.0,5.0,60,0.00,,---,0.00,VWS V14.01,2013-01-15 15:00:00,
2013-01-15 09:05:00,22.1,10.4,30.36,NNE,28,0.0,0.0,60,0.00,,---,0.00,VWS V14.01,2013-01-15 15:05:00,
2013-01-15 09:10:00,22.4,9.9,30.36,NE,47,0.0,1.0,58,0.00,,---,0.00,VWS V14.01,2013-01-15 15:10:00,
2013-01-15 09:15:00,22.2,9.7,30.36,NE,34,1.0,1.0,58,0.00,,---,0.00,VWS V14.01,2013-01-15 15:15:00,
2013-01-15 09:20:00,22.4,10.3,30.36,North,11,0.0,1.0,59,0.00,,---,0.00,VWS V14.01,2013-01-15 15:20:00,
2013-01-15 09:25:00,23.0,10.8,30.36,NE,41,0.0,1.0,59,0.00,,---,0.00,VWS V14.01,2013-01-15 15:25:00,
2013-01-15 09:30:00,23.6,11.0,30.36,ENE,71,0.0,1.0,58,0.00,,---,0.00,VWS V14.01,2013-01-15 15:30:00,
2013-01-15 09:35:00,24.4,11.4,30.35,SE,142,0.0,1.0,57,0.00,,---,0.00,VWS V14.01,2013-01-15 15:35:00,
2013-01-15 09:40:00,25.1,11.6,30.35,North,355,0.0,1.0,56,0.00,,---,0.00,VWS V14.01,2013-01-15 15:40:00,
2013-01-15 09:45:00,25.7,11.4,30.35,ESE,117,0.0,1.0,54,0.00,,---,0.00,VWS V14.01,2013-01-15 15:45:00,
2013-01-15 09:50:00,26.3,11.5,30.36,SE,136,0.0,1.0,53,0.00,,---,0.00,VWS V14.01,2013-01-15 15:50:00,
2013-01-15 09:55:00,26.9,11.2,30.36,East,84,1.0,1.0,51,0.00,,---,0.00,VWS V14.01,2013-01-15 15:55:00,
2013-01-15 10:00:00,27.2,11.5,30.36,SSE,150,5.0,5.0,51,0.00,,---,0.00,VWS V14.01,2013-01-15 16:00:00,
2013-01-15 10:05:00,27.0,10.9,30.37,ENE,67,0.0,3.0,50,0.00,,---,0.00,VWS V14.01,2013-01-15 16:05:00,
2013-01-15 10:10:00,27.0,11.3,30.37,ESE,119,0.0,3.0,51,0.00,,---,0.00,VWS V14.01,2013-01-15 16:10:00,
2013-01-15 10:15:00,26.9,11.6,30.37,SE,140,0.0,6.0,52,0.00,,---,0.00,VWS V14.01,2013-01-15 16:15:00,
2013-01-15 10:20:00,26.9,11.2,30.37,NE,40,0.0,6.0,51,0.00,,---,0.00,VWS V14.01,2013-01-15 16:20:00,
2013-01-15 10:25:00,27.2,11.0,30.37,East,86,0.0,9.0,50,0.00,,---,0.00,VWS V14.01,2013-01-15 16:25:00,
2013-01-15 10:30:00,27.5,11.3,30.37,ESE,113,0.0,9.0,50,0.00,,---,0.00,VWS V14.01,2013-01-15 16:30:00,
2013-01-15 10:35:00,27.9,11.2,30.37,SSE,163,0.0,1.0,49,0.00,,---,0.00,VWS V14.01,2013-01-15 16:35:00,
2013-01-15 10:40:00,28.5,11.8,30.37,East,99,0.0,1.0,49,0.00,,---,0.00,VWS V14.01,2013-01-15 16:40:00,
2013-01-15 10:45:00,28.8,10.6,30.37,South,186,0.0,1.0,46,0.00,,---,0.00,VWS V14.01,2013-01-15 16:45:00,
2013-01-15 10:50:00,29.3,11.1,30.36,North,349,0.0,1.0,46,0.00,,---,0.00,VWS V14.01,2013-01-15 16:50:00,
2013-01-15 10:55:00,29.5,9.8,30.36,East,84,0.0,1.0,43,0.00,,---,0.00,VWS V14.01,2013-01-15 16:55:00,
2013-01-15 11:00:00,29.3,8.0,30.36,NE,34,0.0,1.0,40,0.00,,---,0.00,VWS V14.01,2013-01-15 17:00:00,
2013-01-15 11:05:00,29.3,9.6,30.35,SE,138,0.0,1.0,43,0.00,,---,0.00,VWS V14.01,2013-01-15 17:05:00,
2013-01-15 11:10:00,29.4,9.2,30.35,SE,129,0.0,1.0,42,0.00,,---,0.00,VWS V14.01,2013-01-15 17:10:00,
2013-01-15 11:15:00,29.5,8.2,30.35,SE,126,0.0,3.0,40,0.00,,---,0.00,VWS V14.01,2013-01-15 17:15:00,
2013-01-15 11:20:00,29.7,8.4,30.35,SSE,168,0.0,3.0,40,0.00,,---,0.00,VWS V14.01,2013-01-15 17:20:00,
2013-01-15 11:25:00,30.4,9.5,30.35,East,97,0.0,3.0,41,0.00,,---,0.00,VWS V14.01,2013-01-15 17:25:00,
2013-01-15 11:30:00,30.9,8.9,30.35,ESE,108,0.0,3.0,39,0.00,,---,0.00,VWS V14.01,2013-01-15 17:30:00,
2013-01-15 11:35:00,31.2,9.1,30.34,ESE,102,0.0,4.0,39,0.00,,---,0.00,VWS V14.01,2013-01-15 17:35:00,
2013-01-15 11:40:00,31.3,10.3,30.34,SE,138,1.0,4.0,41,0.00,,---,0.00,VWS V14.01,2013-01-15 17:40:00,
2013-01-15 11:45:00,31.5,11.1,30.34,South,171,0.0,4.0,42,0.00,,---,0.00,VWS V14.01,2013-01-15 17:45:00,
2013-01-15 11:50:00,31.5,11.1,30.33,SSE,162,0.0,5.0,42,0.00,,---,0.00,VWS V14.01,2013-01-15 17:50:00,
2013-01-15 11:55:00,31.6,11.2,30.33,SE,128,5.0,9.0,42,0.00,,---,0.00,VWS V14.01,2013-01-15 17:55:00,
2013-01-15 12:00:00,31.5,11.1,30.33,SSE,154,1.0,9.0,42,0.00,,---,0.00,VWS V14.01,2013-01-15 18:00:00,
2013-01-15 12:05:00,31.8,10.8,30.33,South,173,1.0,1.0,41,0.00,,---,0.00,VWS V14.01,2013-01-15 18:05:00,
2013-01-15 12:10:00,31.8,10.2,30.33,SSE,163,5.0,11.0,40,0.00,,---,0.00,VWS V14.01,2013-01-15 18:10:00,
2013-01-15 12:15:00,31.6,10.1,30.33,SSE,148,5.0,11.0,40,0.00,,---,0.00,VWS V14.01,2013-01-15 18:15:00,
2013-01-15 12:20:00,31.6,9.5,30.32,SSE,161,0.0,11.0,39,0.00,,---,0.00,VWS V14.01,2013-01-15 18:20:00,
2013-01-15 12:25:00,31.6,8.9,30.32,South,180,0.0,11.0,38,0.00,,---,0.00,VWS V14.01,2013-01-15 18:25:00,
2013-01-15 12:30:00,31.9,8.6,30.32,ESE,116,0.0,11.0,37,0.00,,---,0.00,VWS V14.01,2013-01-15 18:30:00,
2013-01-15 12:35:00,31.9,9.8,30.30,North,360,0.0,1.0,39,0.00,,---,0.00,VWS V14.01,2013-01-15 18:35:00,
2013-01-15 12:40:00,32.2,10.0,30.30,SSE,157,0.0,9.0,39,0.00,,---,0.00,VWS V14.01,2013-01-15 18:40:00,
2013-01-15 12:45:00,32.5,10.3,30.30,SSE,153,0.0,9.0,39,0.00,,---,0.00,VWS V14.01,2013-01-15 18:45:00,
2013-01-15 12:50:00,32.8,9.4,30.30,North,360,4.0,9.0,37,0.00,,---,0.00,VWS V14.01,2013-01-15 18:50:00,
2013-01-15 12:55:00,32.8,10.0,30.30,SE,127,5.0,9.0,38,0.00,,---,0.00,VWS V14.01,2013-01-15 18:55:00,
2013-01-15 12:59:00,32.8,10.0,30.30,SSW,203,4.0,9.0,38,0.00,,---,0.00,VWS V14.01,2013-01-15 18:59:00,
2013-01-15 13:00:00,34.1,11.2,30.26,SSE,155,0.0,7.0,38,0.00,,---,0.00,VWS V14.01,2013-01-15 19:00:00,
2013-01-15 13:04:00,32.7,9.3,30.29,North,360,5.0,5.0,37,0.00,,---,0.00,VWS V14.01,2013-01-15 19:04:00,
2013-01-15 13:09:00,32.5,9.1,30.29,ESE,123,0.0,7.0,37,0.00,,---,0.00,VWS V14.01,2013-01-15 19:09:00,
2013-01-15 13:14:00,32.7,8.7,30.29,North,360,0.0,7.0,36,0.00,,---,0.00,VWS V14.01,2013-01-15 19:14:00,
2013-01-15 13:19:00,32.9,8.9,30.28,SSE,151,0.0,7.0,36,0.00,,---,0.00,VWS V14.01,2013-01-15 19:19:00,
2013-01-15 13:24:00,33.1,7.1,30.28,SSW,198,0.0,7.0,33,0.00,,---,0.00,VWS V14.01,2013-01-15 19:24:00,
2013-01-15 13:29:00,33.2,8.5,30.28,SSW,200,0.0,7.0,35,0.00,,---,0.00,VWS V14.01,2013-01-15 19:29:00,
2013-01-15 13:30:00,34.9,11.3,30.25,SSE,147,0.0,1.0,37,0.00,,---,0.00,VWS V14.01,2013-01-15 19:30:00,
2013-01-15 13:34:00,33.2,9.8,30.27,SSE,152,2.0,5.0,37,0.00,,---,0.00,VWS V14.01,2013-01-15 19:34:00,
2013-01-15 13:39:00,32.9,10.1,30.27,SE,143,0.0,7.0,38,0.00,,---,0.00,VWS V14.01,2013-01-15 19:39:00,
2013-01-15 13:44:00,32.8,11.7,30.27,SE,133,1.0,7.0,41,0.00,,---,0.00,VWS V14.01,2013-01-15 19:44:00,
2013-01-15 13:49:00,32.9,11.8,30.26,North,360,1.0,7.0,41,0.00,,---,0.00,VWS V14.01,2013-01-15 19:49:00,
2013-01-15 13:54:00,33.5,12.3,30.26,South,184,1.0,7.0,41,0.00,,---,0.00,VWS V14.01,2013-01-15 19:54:00,
2013-01-15 13:59:00,34.0,11.1,30.26,East,97,2.0,7.0,38,0.00,,---,0.00,VWS V14.01,2013-01-15 19:59:00,
2013-01-15 14:00:00,34.9,10.0,30.25,SE,138,0.0,2.0,35,0.00,,---,0.00,VWS V14.01,2013-01-15 20:00:00,
2013-01-15 14:04:00,34.1,11.2,30.26,ENE,70,0.0,1.0,38,0.00,,---,0.00,VWS V14.01,2013-01-15 20:04:00,
2013-01-15 14:09:00,34.1,11.2,30.26,SW,215,0.0,1.0,38,0.00,,---,0.00,VWS V14.01,2013-01-15 20:09:00,
2013-01-15 14:14:00,34.1,11.8,30.26,SW,223,0.0,1.0,39,0.00,,---,0.00,VWS V14.01,2013-01-15 20:14:00,
2013-01-15 14:19:00,34.3,11.9,30.25,ESE,117,0.0,1.0,39,0.00,,---,0.00,VWS V14.01,2013-01-15 20:19:00,
2013-01-15 14:24:00,34.6,11.6,30.25,WNW,282,0.0,1.0,38,0.00,,---,0.00,VWS V14.01,2013-01-15 20:24:00,
2013-01-15 14:29:00,34.7,11.1,30.25,ESE,108,0.0,1.0,37,0.00,,---,0.00,VWS V14.01,2013-01-15 20:29:00,
2013-01-15 14:30:00,34.6,6.4,30.25,SSE,148,0.0,6.0,30,0.00,,---,0.00,VWS V14.01,2013-01-15 20:30:00,
2013-01-15 14:34:00,34.9,10.7,30.25,SE,132,0.0,0.0,36,0.00,,---,0.00,VWS V14.01,2013-01-15 20:34:00,
2013-01-15 14:39:00,34.7,10.5,30.25,WNW,303,0.0,1.0,36,0.00,,---,0.00,VWS V14.01,2013-01-15 20:39:00,
2013-01-15 14:44:00,34.7,9.9,30.25,SE,138,0.0,1.0,35,0.00,,---,0.00,VWS V14.01,2013-01-15 20:44:00,
2013-01-15 14:49:00,34.6,9.8,30.25,East,90,0.0,2.0,35,0.00,,---,0.00,VWS V14.01,2013-01-15 20:49:00,
2013-01-15 14:54:00,34.6,9.8,30.25,ESE,112,0.0,2.0,35,0.00,,---,0.00,VWS V14.01,2013-01-15 20:54:00,
2013-01-15 14:59:00,34.6,9.8,30.25,SSE,153,0.0,2.0,35,0.00,,---,0.00,VWS V14.01,2013-01-15 20:59:00,
2013-01-15 15:00:00,35.0,5.2,30.25,East,88,0.0,1.0,28,0.00,,---,0.00,VWS V14.01,2013-01-15 21:00:00,
2013-01-15 15:04:00,34.9,9.4,30.25,ENE,65,1.0,5.0,34,0.00,,---,0.00,VWS V14.01,2013-01-15 21:04:00,
2013-01-15 15:09:00,34.9,8.1,30.25,NNE,17,2.0,6.0,32,0.00,,---,0.00,VWS V14.01,2013-01-15 21:09:00,
2013-01-15 15:14:00,34.6,7.8,30.25,South,175,0.0,6.0,32,0.00,,---,0.00,VWS V14.01,2013-01-15 21:14:00,
2013-01-15 15:19:00,34.6,7.8,30.25,SE,129,0.0,6.0,32,0.00,,---,0.00,VWS V14.01,2013-01-15 21:19:00,
2013-01-15 15:24:00,34.7,7.2,30.25,ENE,76,0.0,6.0,31,0.00,,---,0.00,VWS V14.01,2013-01-15 21:24:00,
2013-01-15 15:29:00,34.7,6.4,30.25,SSE,151,0.0,6.0,30,0.00,,---,0.00,VWS V14.01,2013-01-15 21:29:00,
2013-01-15 15:30:00,33.7,6.3,30.24,East,90,0.0,1.0,31,0.00,,---,0.00,VWS V14.01,2013-01-15 21:30:00,
2013-01-15 15:34:00,34.6,5.6,30.25,SE,142,0.0,0.0,29,0.00,,---,0.00,VWS V14.01,2013-01-15 21:34:00,
2013-01-15 15:39:00,34.6,4.9,30.25,ESE,103,0.0,1.0,28,0.00,,---,0.00,VWS V14.01,2013-01-15 21:39:00,
2013-01-15 15:44:00,34.7,4.9,30.25,SSE,150,0.0,1.0,28,0.00,,---,0.00,VWS V14.01,2013-01-15 21:44:00,
2013-01-15 15:49:00,34.7,4.9,30.25,SE,138,0.0,1.0,28,0.00,,---,0.00,VWS V14.01,2013-01-15 21:49:00,
2013-01-15 15:54:00,34.9,5.1,30.25,ESE,107,0.0,1.0,28,0.00,,---,0.00,VWS V14.01,2013-01-15 21:54:00,
2013-01-15 15:59:00,35.0,5.2,30.25,ESE,105,0.0,1.0,28,0.00,,---,0.00,VWS V14.01,2013-01-15 21:59:00,
2013-01-15 16:00:00,32.4,6.5,30.24,East,88,0.0,1.0,33,0.00,,---,0.00,VWS V14.01,2013-01-15 22:00:00,
2013-01-15 16:04:00,34.9,5.9,30.25,East,101,0.0,1.0,29,0.00,,---,0.00,VWS V14.01,2013-01-15 22:04:00,
2013-01-15 16:09:00,34.7,6.4,30.25,ENE,62,0.0,1.0,30,0.00,,---,0.00,VWS V14.01,2013-01-15 22:09:00,
2013-01-15 16:14:00,34.4,6.9,30.25,SSW,196,0.0,1.0,31,0.00,,---,0.00,VWS V14.01,2013-01-15 22:14:00,
2013-01-15 16:19:00,34.3,7.5,30.25,ESE,111,0.0,1.0,32,0.00,,---,0.00,VWS V14.01,2013-01-15 22:19:00,
2013-01-15 16:24:00,34.0,6.6,30.25,North,5,0.0,1.0,31,0.00,,---,0.00,VWS V14.01,2013-01-15 22:24:00,
2013-01-15 16:29:00,33.8,7.1,30.25,ESE,116,0.0,1.0,32,0.00,,---,0.00,VWS V14.01,2013-01-15 22:29:00,
2013-01-15 16:30:00,31.6,8.9,30.24,East,88,0.0,1.0,38,0.00,,---,0.00,VWS V14.01,2013-01-15 22:30:00,
2013-01-15 16:34:00,33.5,6.8,30.24,East,80,1.0,1.0,32,0.00,,---,0.00,VWS V14.01,2013-01-15 22:34:00,
2013-01-15 16:39:00,33.2,6.6,30.24,ENE,76,0.0,1.0,32,0.00,,---,0.00,VWS V14.01,2013-01-15 22:39:00,
2013-01-15 16:44:00,33.2,7.2,30.24,East,92,0.0,1.0,33,0.00,,---,0.00,VWS V14.01,2013-01-15 22:44:00,
2013-01-15 16:49:00,33.2,7.2,30.24,ENE,58,0.0,1.0,33,0.00,,---,0.00,VWS V14.01,2013-01-15 22:49:00,
2013-01-15 16:54:00,32.9,7.0,30.24,NE,53,0.0,1.0,33,0.00,,---,0.00,VWS V14.01,2013-01-15 22:54:00,
2013-01-15 16:59:00,32.7,7.4,30.24,East,86,0.0,1.0,34,0.00,,---,0.00,VWS V14.01,2013-01-15 22:59:00,
2013-01-15 17:00:00,30.1,10.3,30.23,ENE,65,0.0,1.0,43,0.00,,---,0.00,VWS V14.01,2013-01-15 23:00:00,
2013-01-15 17:04:00,32.4,7.2,30.24,East,94,0.0,1.0,34,0.00,,---,0.00,VWS V14.01,2013-01-15 23:04:00,
2013-01-15 17:09:00,32.4,7.2,30.24,East,81,1.0,1.0,34,0.00,,---,0.00,VWS V14.01,2013-01-15 23:09:00,
2013-01-15 17:14:00,32.4,7.8,30.24,East,88,0.0,1.0,35,0.00,,---,0.00,VWS V14.01,2013-01-15 23:14:00,
2013-01-15 17:19:00,32.4,7.8,30.24,East,82,0.0,1.0,35,0.00,,---,0.00,VWS V14.01,2013-01-15 23:19:00,
2013-01-15 17:24:00,32.2,8.3,30.24,ENE,76,0.0,1.0,36,0.00,,---,0.00,VWS V14.01,2013-01-15 23:24:00,
2013-01-15 17:29:00,31.9,8.6,30.24,ENE,67,0.0,1.0,37,0.00,,---,0.00,VWS V14.01,2013-01-15 23:29:00,
2013-01-15 17:30:00,29.8,11.1,30.23,East,101,0.0,1.0,45,0.00,,---,0.00,VWS V14.01,2013-01-15 23:30:00,
2013-01-15 17:34:00,31.5,8.8,30.24,ENE,61,1.0,1.0,38,0.00,,---,0.00,VWS V14.01,2013-01-15 23:34:00,
2013-01-15 17:39:00,31.2,9.1,30.24,NE,50,0.0,1.0,39,0.00,,---,0.00,VWS V14.01,2013-01-15 23:39:00,
2013-01-15 17:44:00,30.7,9.8,30.24,East,94,0.0,1.0,41,0.00,,---,0.00,VWS V14.01,2013-01-15 23:44:00,
2013-01-15 17:49:00,30.4,10.1,30.23,East,84,0.0,1.0,42,0.00,,---,0.00,VWS V14.01,2013-01-15 23:49:00,
2013-01-15 17:54:00,30.3,10.0,30.23,East,99,0.0,1.0,42,0.00,,---,0.00,VWS V14.01,2013-01-15 23:54:00,
2013-01-15 17:59:00,30.3,10.5,30.23,ENE,75,0.0,1.0,43,0.00,,---,0.00,VWS V14.01,2013-01-15 23:59:00,
2013-01-15 18:00:00,29.7,11.9,30.24,ESE,109,0.0,1.0,47,0.00,,---,0.00,VWS V14.01,2013-01-16 00:00:00,
2013-01-15 18:04:00,30.1,10.3,30.23,ESE,103,0.0,1.0,43,0.00,,---,0.00,VWS V14.01,2013-01-16 00:04:00,
2013-01-15 18:09:00,30.1,10.3,30.23,East,82,0.0,1.0,43,0.00,,---,0.00,VWS V14.01,2013-01-16 00:09:00,
2013-01-15 18:14:00,30.0,10.2,30.23,East,80,0.0,1.0,43,0.00,,---,0.00,VWS V14.01,2013-01-16 00:14:00,
2013-01-15 18:19:00,29.7,10.5,30.23,ESE,108,0.0,1.0,44,0.00,,---,0.00,VWS V14.01,2013-01-16 00:19:00,
2013-01-15 18:24:00,29.7,11.0,30.23,ESE,109,0.0,1.0,45,0.00,,---,0.00,VWS V14.01,2013-01-16 00:24:00,
2013-01-15 18:29:00,29.8,11.6,30.23,East,84,0.0,1.0,46,0.00,,---,0.00,VWS V14.01,2013-01-16 00:29:00,
2013-01-15 18:30:00,29.3,13.0,30.23,ESE,121,0.0,1.0,50,0.00,,---,0.00,VWS V14.01,2013-01-16 00:30:00,
2013-01-15 18:34:00,29.8,11.1,30.23,ESE,107,0.0,1.0,45,0.00,,---,0.00,VWS V14.01,2013-01-16 00:34:00,
2013-01-15 18:39:00,29.8,11.6,30.23,ESE,107,0.0,1.0,46,0.00,,---,0.00,VWS V14.01,2013-01-16 00:39:00,
2013-01-15 18:44:00,29.8,11.1,30.23,East,97,0.0,1.0,45,0.00,,---,0.00,VWS V14.01,2013-01-16 00:44:00,
2013-01-15 18:49:00,29.7,11.5,30.23,ESE,105,0.0,1.0,46,0.00,,---,0.00,VWS V14.01,2013-01-16 00:49:00,
2013-01-15 18:54:00,29.5,11.8,30.23,ENE,63,0.0,1.0,47,0.00,,---,0.00,VWS V14.01,2013-01-16 00:54:00,
2013-01-15 18:59:00,29.7,11.9,30.23,ESE,121,0.0,1.0,47,0.00,,---,0.00,VWS V14.01,2013-01-16 00:59:00,
2013-01-15 19:00:00,29.1,13.2,30.23,SE,132,0.0,1.0,51,0.00,,---,0.00,VWS V14.01,2013-01-16 01:00:00,
2013-01-15 19:04:00,29.7,11.9,30.24,East,101,0.0,0.0,47,0.00,,---,0.00,VWS V14.01,2013-01-16 01:04:00,
2013-01-15 19:09:00,29.7,11.9,30.24,East,95,0.0,1.0,47,0.00,,---,0.00,VWS V14.01,2013-01-16 01:09:00,
2013-01-15 19:14:00,29.5,12.2,30.24,ESE,123,0.0,1.0,48,0.00,,---,0.00,VWS V14.01,2013-01-16 01:14:00,
2013-01-15 19:19:00,29.4,12.1,30.23,East,84,0.0,1.0,48,0.00,,---,0.00,VWS V14.01,2013-01-16 01:19:00,
2013-01-15 19:24:00,29.3,12.5,30.23,ESE,108,0.0,1.0,49,0.00,,---,0.00,VWS V14.01,2013-01-16 01:24:00,
2013-01-15 19:29:00,29.3,13.0,30.23,ESE,119,0.0,1.0,50,0.00,,---,0.00,VWS V14.01,2013-01-16 01:29:00,
2013-01-15 19:30:00,29.0,13.6,30.21,ESE,107,0.0,2.0,52,0.00,,---,0.00,VWS V14.01,2013-01-16 01:30:00,
2013-01-15 19:34:00,29.3,13.0,30.23,ESE,109,0.0,0.0,50,0.00,,---,0.00,VWS V14.01,2013-01-16 01:34:00,
2013-01-15 19:39:00,29.4,13.1,30.23,ESE,111,0.0,1.0,50,0.00,,---,0.00,VWS V14.01,2013-01-16 01:39:00,
2013-01-15 19:44:00,29.4,13.1,30.23,SE,132,1.0,1.0,50,0.00,,---,0.00,VWS V14.01,2013-01-16 01:44:00,
2013-01-15 19:49:00,29.4,13.1,30.23,SE,138,0.0,1.0,50,0.00,,---,0.00,VWS V14.01,2013-01-16 01:49:00,
2013-01-15 19:54:00,29.4,13.1,30.23,SE,130,0.0,1.0,50,0.00,,---,0.00,VWS V14.01,2013-01-16 01:54:00,
2013-01-15 19:59:00,29.3,13.4,30.23,SE,132,0.0,1.0,51,0.00,,---,0.00,VWS V14.01,2013-01-16 01:59:00,
2013-01-15 20:00:00,28.7,13.3,30.20,East,95,0.0,1.0,52,0.00,,---,0.00,VWS V14.01,2013-01-16 02:00:00,
2013-01-15 20:04:00,29.1,13.2,30.23,SE,124,0.0,0.0,51,0.00,,---,0.00,VWS V14.01,2013-01-16 02:04:00,
2013-01-15 20:09:00,29.1,13.2,30.23,East,101,0.0,0.0,51,0.00,,---,0.00,VWS V14.01,2013-01-16 02:09:00,
2013-01-15 20:14:00,29.0,13.1,30.23,ESE,106,0.0,1.0,51,0.00,,---,0.00,VWS V14.01,2013-01-16 02:14:00,
2013-01-15 20:19:00,29.0,13.1,30.22,ESE,113,0.0,1.0,51,0.00,,---,0.00,VWS V14.01,2013-01-16 02:19:00,
2013-01-15 20:24:00,28.8,13.0,30.22,East,93,0.0,2.0,51,0.00,,---,0.00,VWS V14.01,2013-01-16 02:24:00,
2013-01-15 20:29:00,28.8,13.4,30.22,SE,135,0.0,2.0,52,0.00,,---,0.00,VWS V14.01,2013-01-16 02:29:00,
2013-01-15 20:30:00,27.3,13.7,30.18,ESE,104,0.0,1.0,56,0.00,,---,0.00,VWS V14.01,2013-01-16 02:30:00,
2013-01-15 20:34:00,29.0,13.6,30.21,SE,128,0.0,0.0,52,0.00,,---,0.00,VWS V14.01,2013-01-16 02:34:00,
2013-01-15 20:39:00,29.0,13.6,30.21,ESE,120,0.0,1.0,52,0.00,,---,0.00,VWS V14.01,2013-01-16 02:39:00,
2013-01-15 20:44:00,29.0,13.6,30.21,ESE,120,0.0,1.0,52,0.00,,---,0.00,VWS V14.01,2013-01-16 02:44:00,
2013-01-15 20:49:00,29.0,13.6,30.21,ENE,72,0.0,1.0,52,0.00,,---,0.00,VWS V14.01,2013-01-16 02:49:00,
2013-01-15 20:54:00,28.8,13.4,30.21,East,101,0.0,1.0,52,0.00,,---,0.00,VWS V14.01,2013-01-16 02:54:00,
2013-01-15 20:59:00,28.8,13.4,30.21,East,94,0.0,1.0,52,0.00,,---,0.00,VWS V14.01,2013-01-16 02:59:00,
2013-01-15 21:00:00,26.3,12.8,30.18,NE,53,0.0,3.0,56,0.00,,---,0.00,VWS V14.01,2013-01-16 03:00:00,
2013-01-15 21:04:00,28.7,13.3,30.20,East,88,0.0,0.0,52,0.00,,---,0.00,VWS V14.01,2013-01-16 03:04:00,
2013-01-15 21:09:00,28.4,13.0,30.20,East,92,0.0,0.0,52,0.00,,---,0.00,VWS V14.01,2013-01-16 03:09:00,
2013-01-15 21:14:00,28.1,13.2,30.20,East,81,0.0,0.0,53,0.00,,---,0.00,VWS V14.01,2013-01-16 03:14:00,
2013-01-15 21:19:00,27.8,12.9,30.20,East,101,0.0,0.0,53,0.00,,---,0.00,VWS V14.01,2013-01-16 03:19:00,
2013-01-15 21:24:00,27.6,13.1,30.20,NNE,32,0.0,1.0,54,0.00,,---,0.00,VWS V14.01,2013-01-16 03:24:00,
2013-01-15 21:29:00,27.5,13.5,30.20,ESE,103,0.0,1.0,55,0.00,,---,0.00,VWS V14.01,2013-01-16 03:29:00,
2013-01-15 21:30:00,25.7,12.6,30.17,ESE,117,0.0,12.0,57,0.00,,---,0.00,VWS V14.01,2013-01-16 03:30:00,
2013-01-15 21:34:00,27.3,13.7,30.18,ESE,102,0.0,0.0,56,0.00,,---,0.00,VWS V14.01,2013-01-16 03:34:00,
2013-01-15 21:39:00,27.2,13.6,30.18,East,98,0.0,3.0,56,0.00,,---,0.00,VWS V14.01,2013-01-16 03:39:00,
2013-01-15 21:44:00,27.0,13.0,30.18,North,350,0.0,3.0,55,0.00,,---,0.00,VWS V14.01,2013-01-16 03:44:00,
2013-01-15 21:49:00,26.7,13.1,30.18,NE,42,0.0,3.0,56,0.00,,---,0.00,VWS V14.01,2013-01-16 03:49:00,
2013-01-15 21:54:00,26.6,13.0,30.18,NNE,19,0.0,3.0,56,0.00,,---,0.00,VWS V14.01,2013-01-16 03:54:00,
2013-01-15 21:59:00,26.4,12.8,30.18,East,98,0.0,3.0,56,0.00,,---,0.00,VWS V14.01,2013-01-16 03:59:00,
2013-01-15 22:00:00,25.8,11.9,30.17,East,98,2.0,4.0,55,0.00,,---,0.00,VWS V14.01,2013-01-16 04:00:00,
2013-01-15 22:04:00,26.3,12.8,30.18,NE,53,0.0,0.0,56,0.00,,---,0.00,VWS V14.01,2013-01-16 04:04:00,
2013-01-15 22:09:00,26.3,13.1,30.18,ENE,75,0.0,0.0,57,0.00,,---,0.00,VWS V14.01,2013-01-16 04:09:00,
2013-01-15 22:14:00,26.3,13.1,30.18,East,91,0.0,12.0,57,0.00,,---,0.00,VWS V14.01,2013-01-16 04:14:00,
2013-01-15 22:19:00,26.1,13.0,30.17,East,86,0.0,12.0,57,0.00,,---,0.00,VWS V14.01,2013-01-16 04:19:00,
2013-01-15 22:24:00,26.0,12.9,30.17,East,101,0.0,12.0,57,0.00,,---,0.00,VWS V14.01,2013-01-16 04:24:00,
2013-01-15 22:29:00,25.8,12.7,30.17,ESE,117,0.0,12.0,57,0.00,,---,0.00,VWS V14.01,2013-01-16 04:29:00,
2013-01-15 22:30:00,24.4,11.0,30.17,SSW,208,0.0,3.0,56,0.00,,---,0.00,VWS V14.01,2013-01-16 04:30:00,
2013-01-15 22:34:00,25.8,12.7,30.17,SE,128,0.0,0.0,57,0.00,,---,0.00,VWS V14.01,2013-01-16 04:34:00,
2013-01-15 22:39:00,25.8,12.7,30.17,ESE,116,0.0,4.0,57,0.00,,---,0.00,VWS V14.01,2013-01-16 04:39:00,
2013-01-15 22:44:00,26.0,12.5,30.17,ESE,102,0.0,4.0,56,0.00,,---,0.00,VWS V14.01,2013-01-16 04:44:00,
2013-01-15 22:49:00,26.0,11.6,30.17,North,355,0.0,4.0,54,0.00,,---,0.00,VWS V14.01,2013-01-16 04:49:00,
2013-01-15 22:54:00,26.0,11.6,30.17,ESE,110,0.0,4.0,54,0.00,,---,0.00,VWS V14.01,2013-01-16 04:54:00,
2013-01-15 22:59:00,25.8,11.9,30.17,East,94,0.0,4.0,55,0.00,,---,0.00,VWS V14.01,2013-01-16 04:59:00,
2013-01-15 23:00:00,25.8,11.9,30.17,East,95,0.0,4.0,55,0.00,,---,0.00,VWS V14.01,2013-01-16 05:00:00,
2013-01-15 23:01:00,25.8,11.9,30.17,East,94,0.0,4.0,55,0.00,,---,0.00,VWS V14.01,2013-01-16 05:01:00,
2013-01-15 23:06:00,25.7,11.8,30.17,SSE,151,0.0,2.0,55,0.00,,---,0.00,VWS V14.01,2013-01-16 05:06:00,
2013-01-15 23:11:00,25.4,11.5,30.17,SSE,155,0.0,2.0,55,0.00,,---,0.00,VWS V14.01,2013-01-16 05:11:00,
2013-01-15 23:16:00,25.3,11.8,30.17,ESE,111,0.0,2.0,56,0.00,,---,0.00,VWS V14.01,2013-01-16 05:16:00,
2013-01-15 23:21:00,25.1,11.6,30.17,WSW,238,0.0,3.0,56,0.00,,---,0.00,VWS V14.01,2013-01-16 05:21:00,
2013-01-15 23:26:00,24.7,11.2,30.17,SSW,197,0.0,3.0,56,0.00,,---,0.00,VWS V14.01,2013-01-16 05:26:00,
2013-01-15 23:30:00,23.5,10.1,30.15,West,265,0.0,7.0,56,0.00,,---,0.00,VWS V14.01,2013-01-16 05:30:00,
2013-01-15 23:31:00,24.4,11.0,30.17,SSW,211,0.0,3.0,56,0.00,,---,0.00,VWS V14.01,2013-01-16 05:31:00,
2013-01-15 23:36:00,24.2,11.2,30.17,SSE,166,0.0,1.0,57,0.00,,---,0.00,VWS V14.01,2013-01-16 05:36:00,
2013-01-15 23:41:00,24.1,11.1,30.17,SE,128,0.0,3.0,57,0.00,,---,0.00,VWS V14.01,2013-01-16 05:41:00,
2013-01-15 23:46:00,23.9,10.9,30.17,SSW,213,0.0,3.0,57,0.00,,---,0.00,VWS V14.01,2013-01-16 05:46:00,
2013-01-15 23:51:00,23.9,10.9,30.16,SSW,211,0.0,3.0,57,0.00,,---,0.00,VWS V14.01,2013-01-16 05:51:00,
2013-01-15 23:56:00,23.8,11.2,30.16,SW,223,0.0,3.0,58,0.00,,---,0.00,VWS V14.01,2013-01-16 05:56:00,